Location: Okie-Tex Star Party
(36.8978°N, 102.9520°W)
Time: 15:04:08
(UTC-05:00)

Daily predictions for brighter satellites

Satellite Brightness Start Highest point End
(mag) Time Altitude Azimuth Time Altitude Azimuth Time Altitude Azimuth
Nadezhda 1 Rocket 4.2 20:08:25 10° N 20:14:50 88° W 20:21:09 10° S
Cosmos 2181 Rocket 4.5 20:10:28 10° N 20:16:13 38° ENE 20:21:51 10° SE
SAR-Lupe-3 4.5 20:12:55 10° NNE 20:16:31 79° ESE 20:20:05 10° S
GPS 2-04 Rocket1 3.5 20:13:47 10° W 20:17:57 50° SSW 20:22:07 10° ESE
Meteor 1-15 Rocket 4.4 20:20:42 10° S 20:26:37 87° E 20:32:29 10° N
Tiangong 2 1.7 20:24:01 10° WNW 20:27:10 52° SSW 20:30:17 10° SE
Cosmos 1898 Rocket 3.8 20:22:18 10° N 20:27:18 47° ENE 20:32:15 10° SE
Cosmos 1814 Rocket 4.2 20:24:45 10° S 20:29:41 47° ESE 20:34:37 10° NNE
Cosmos 1707 3.4 20:29:29 10° NNE 20:33:04 33° ENE 20:36:39 10° SE
COSMO-SKYMED 1 4.4 20:29:24 10° N 20:33:24 37° WNW 20:37:23 10° SW
Cosmos 1340 Rocket 2.9 20:36:51 10° N 20:40:51 56° E 20:44:50 10° SSE
Cosmos 389 Rocket 2.5 20:38:51 10° S 20:42:23 87° W 20:45:54 10° N
Cosmos 2150 Rocket 4.5 20:37:43 10° N 20:42:46 42° ENE 20:47:52 10° SE
Cosmos 990 Rocket 4.4 20:38:19 10° N 20:43:12 41° ENE 20:48:01 10° SE
Cosmos 1758 Rocket 3.6 20:38:56 10° N 20:43:23 62° E 20:47:50 10° SSE
Cosmos 1709 Rocket 4.2 20:37:56 10° S 20:44:15 83° W 20:50:40 10° N
Cosmos 2369 Rocket 2.5 20:39:22 10° NNW 20:45:00 72° WSW 20:50:34 10° SSE
SL-08 ROCKET BODY 4.4 20:39:27 10° S 20:45:09 57° E 20:50:56 10° NNE
FENGYUN 3A 3.8 20:39:50 10° S 20:45:11 77° WSW 20:50:34 10° NNW
ALOS 2.7 20:42:03 10° S 20:46:41 66° W 20:51:20 10° NNW
Envisat 4.1 20:45:42 15° ESE 20:48:28 24° ENE 20:52:28 10° NNE
Cosmos 1726 Rocket 3.5 20:44:32 10° S 20:48:54 83° E 20:53:16 10° N
FREGAT/IRIS 2.6 20:46:23 10° S 20:49:25 85° W 20:52:27 10° NNW
Cosmos 1271 Rocket 3.5 20:46:05 10° SSW 20:49:44 55° W 20:53:29 10° N
Geosat 4.5 20:45:10 10° SSE 20:50:08 64° WSW 20:55:08 10° NNW
Lacrosse 5 2.3 20:45:54 10° NW 20:50:54 61° SW 20:55:53 10° SSE
Cosmos 1656 Rocket 4.5 20:47:23 10° N 20:52:25 32° ENE 20:55:34 19° ESE
Resurs 01 Rocket 2.3 20:54:17 18° ESE 20:56:53 33° ENE 21:00:51 10° N
BREEZE-M (TANK) 3.9 20:47:40 10° NW 21:02:39 70° NNE 21:05:13 25° ESE
Cosmos 2263 4.5 20:57:54 10° NNW 21:03:30 71° WSW 21:09:06 10° SSE
CZ-2D R/B 3.5 21:01:53 21° SE 21:04:07 46° ENE 21:07:47 10° N
Cosmos 858 Rocket 4.5 20:59:12 10° NNW 21:04:29 89° ENE 21:09:43 10° SSE
Cosmos 2298 Rocket 4.0 21:01:13 10° NNW 21:06:34 80° ENE 21:11:53 10° SSE
OE (NEXTSAT) 4.3 21:04:06 10° NW 21:07:38 70° NNE 21:08:46 39° ESE
SJ-6B 3.0 21:03:42 10° S 21:07:46 78° WSW 21:11:46 10° NNW
Cosmos 2184 Rocket 4.0 21:01:59 10° S 21:08:07 61° E 21:14:22 10° NNE
GP-B 3.9 21:05:22 10° NNE 21:09:14 29° E 21:09:18 29° E
Cosmos 1378 3.1 21:07:20 10° N 21:11:08 85° WSW 21:14:54 10° S
Cosmos 841 Rocket 3.3 21:07:47 10° SSW 21:12:55 78° ESE 21:18:03 10° NNE
Cosmos 1937 Rocket 3.5 21:09:35 10° NNW 21:14:55 87° WSW 21:20:08 10° SSE
HJ-1C 4.1 21:15:46 10° S 21:19:02 53° W 21:22:19 10° NNW
Meteor 1-24 Rocket 3.8 21:16:12 10° N 21:22:09 62° E 21:26:14 20° SSE
Cosmos 1544 3.8 21:23:50 36° NE 21:23:50 36° NE 21:26:18 10° NNE
Cosmos 2058 Rocket 3.8 21:19:52 10° SSW 21:24:07 53° W 21:28:24 10° N
Cosmos 1812 Rocket 4.2 21:26:00 37° ENE 21:26:00 37° ENE 21:29:24 10° NNE
Milstar 3 Cent rocket 3.4 21:22:19 10° SSW 21:25:52 20° SSE 21:25:52 20° SSE
Cosmos 2084 3.7 21:23:12 10° SW 21:27:17 63° WNW 21:31:11 10° NNE
USA 229 DEB 4.0 21:21:12 10° NW 21:28:23 72° WSW 21:34:28 16° SSE
USA 229 4.0 21:21:18 10° NW 21:28:29 73° WSW 21:34:29 16° SSE
Cosmos 2228 3.9 21:24:17 10° SSW 21:28:33 51° W 21:32:48 10° N
BREEZE-M DEB 2.8 21:24:00 10° NW 21:30:53 73° SW 21:31:29 55° SSE
NOSS 3-1 (A) 4.3 21:25:30 10° NNW 21:33:00 52° NE 21:36:22 34° ESE
Cosmos 2327 Rocket 4.4 21:27:14 10° S 21:33:23 89° E 21:39:31 10° N
Cosmos 1763 Rocket 4.5 21:31:02 10° SW 21:35:54 46° WNW 21:40:52 10° N
NOSS 3-1 (C) 4.0 21:36:11 10° NNW 21:43:57 77° ENE 21:47:50 36° SE
Meteor 2-8 Rocket 4.3 21:38:27 10° N 21:44:36 75° E 21:47:22 34° SSE
Cosmos 540 Rocket 3.2 21:39:50 10° S 21:44:55 75° ESE 21:50:01 10° NNE
GEOS 3 Rocket 3.7 21:42:56 10° NNE 21:48:21 82° NW 21:53:43 10° SW
MOS 1-B Rocket 4.0 21:45:43 23° SSE 21:50:01 89° WSW 21:55:52 10° NNW
Cosmos 1943 Rocket 3.9 21:48:37 10° NW 21:53:25 30° WSW 21:58:13 10° SSW
Cosmos 1939 Rocket 4.1 21:55:24 33° N 21:55:24 33° N 21:57:39 10° N
Meteor 2-19 Rocket 4.3 21:48:06 10° S 21:54:09 86° E 22:00:13 10° N
Spot 2 Rocket 3.7 21:53:04 36° S 21:55:07 69° WSW 22:00:09 10° NNW
Cosmos 1766 4.4 21:52:03 10° SSW 21:55:50 44° W 21:59:37 10° N
COSMOS 2406 3.7 22:06:03 10° SW 22:11:38 57° WNW 22:17:18 10° NNE
Cosmos 2154 Rocket 4.0 22:06:32 10° S 22:12:42 76° W 22:18:58 10° N
Cosmos 2341 Rocket 3.9 22:19:03 79° NE 22:19:03 79° NE 22:24:55 10° N
H-2A R/B 4.4 22:22:55 11° NNE 22:22:55 11° NNE 22:23:13 10° NNE
Cosmos 1125 Rocket 3.8 22:14:43 10° NNW 22:19:06 62° NNW 22:19:06 62° NNW
Envisat 4.3 22:25:55 31° SW 22:27:14 36° W 22:31:54 10° NNW
Resurs 01 Rocket 4.0 22:31:52 17° WSW 22:33:23 19° W 22:36:36 10° NW
ATLAS CENTAUR R/B 4.4 22:48:10 10° NW 22:55:10 26° WSW 22:55:20 26° WSW
FALCON 9 R/B 3.7 22:59:38 10° W 23:01:58 36° WSW 23:01:58 36° WSW
ATLAS 2AS CENTAUR R/B 3.9 23:07:41 10° NNW 23:13:11 39° N 23:13:11 39° N
